Weather History for Philadelphia Wings Airport, PA

Change the Weather History Date:

Tuesday, June 3, 2014

  Actual Average (KPNE) Record (KPNE)
Temperature  
Mean Temperature 74 °F -  
Max Temperature 89 °F 74 °F 88 °F (2014)
Min Temperature 60 °F 54 °F 48 °F (1997)
Cooling Degree Days 10    
Growing Degree Days 24 (Base 50)    
Moisture  
Dew Point 62 °F    
Average Humidity 66    
Maximum Humidity 88    
Minimum Humidity 40    
Precipitation  
Precipitation 0.02 in - - ()
Sea Level Pressure  
Sea Level Pressure 29.93 in    
Wind  
Wind Speed 3 mph (WSW)    
Max Wind Speed 14 mph    
Max Gust Speed 21 mph    
Visibility 10 miles    
Events      
Averages and records for this station are not official NWS values.
T = Trace of Precipitation, MM = Missing Value Source: NWS Daily Summary

Daily Weather History Graph

Daily Weather History Graph

Search for Another Location

Airport:

Trip Planner

Search our weather history database for the weather conditions in past years. The results will help you decide how hot, cold, wet, or windy it might be!

Date:

Astronomy

Jun. 03, 2014 Rise Set
Actual Time 5:33 AM EDT 8:25 PM EDT
Civil Twilight 5:00 AM EDT 8:58 PM EDT
Nautical Twilight 4:19 AM EDT 9:38 PM EDT
Astronomical Twilight 3:33 AM EDT 10:26 PM EDT
Moon 10:54 AM EDT (6/3) No Moon Set
Length of Visible Light 15h 57m
Length of Day
14h 52m
Waxing Crescent, 30% of the Moon is Illuminated
Jun 3
Waxing Crescent
Jun 5
First Quarter
Jun 13
Full
Jun 19
Last Quarter
Jun 27
New

Hourly Weather History & Observations

Time (EDT) Temp. Heat Index Dew Point Humidity Pressure Visibility Wind Dir Wind Speed Gust Speed Precip Events Conditions
12:15 AM 69.8 °F - 55.4 °F 60% 30.05 in 10.0 mi SW 5.8 mph - N/A   Clear
12:35 AM 69.8 °F - 53.6 °F 56% 30.05 in 10.0 mi WSW 4.6 mph - N/A   Clear
12:55 AM 68.0 °F - 55.4 °F 64% 30.05 in 10.0 mi SW 4.6 mph - N/A   Clear
1:15 AM 68.0 °F - 55.4 °F 64% 30.04 in 10.0 mi WSW 3.5 mph - N/A   Clear
1:35 AM 68.0 °F - 55.4 °F 64% 30.04 in 10.0 mi Calm Calm - N/A   Clear
1:55 AM 64.4 °F - 55.4 °F 73% 30.03 in 10.0 mi Calm Calm - N/A   Clear
2:15 AM 62.6 °F - 55.4 °F 77% 30.03 in 10.0 mi Calm Calm - N/A   Clear
2:35 AM 62.6 °F - 55.4 °F 77% 30.03 in 10.0 mi Calm Calm - N/A   Clear
2:55 AM 62.6 °F - 55.4 °F 77% 30.03 in 10.0 mi Calm Calm - N/A   Clear
3:15 AM 60.8 °F - 55.4 °F 82% 30.02 in 10.0 mi Calm Calm - N/A   Clear
3:35 AM 60.8 °F - 55.4 °F 82% 30.01 in 10.0 mi Calm Calm - N/A   Clear
3:55 AM 62.6 °F - 55.4 °F 77% 30.01 in 10.0 mi Calm Calm - N/A   Clear
4:15 AM 62.6 °F - 55.4 °F 77% 30.01 in 10.0 mi Calm Calm - N/A   Clear
4:35 AM 64.4 °F - 55.4 °F 73% 30.01 in 10.0 mi Calm Calm - N/A   Clear
4:55 AM 62.6 °F - 55.4 °F 77% 30.01 in 10.0 mi Calm Calm - N/A   Clear
5:15 AM 62.6 °F - 55.4 °F 77% 30.00 in 10.0 mi Calm Calm - N/A   Clear
5:35 AM 60.8 °F - 57.2 °F 88% 30.00 in 10.0 mi Calm Calm - N/A   Clear
5:55 AM 62.6 °F - 57.2 °F 82% 30.00 in 10.0 mi Calm Calm - N/A   Clear
6:15 AM 62.6 °F - 57.2 °F 82% 30.00 in 10.0 mi Calm Calm - N/A   Clear
6:35 AM 66.2 °F - 59.0 °F 78% 30.00 in 10.0 mi Calm Calm - N/A   Clear
6:55 AM 68.0 °F - 59.0 °F 73% 30.00 in 10.0 mi WSW 4.6 mph - N/A   Clear
7:15 AM 69.8 °F - 60.8 °F 73% 29.99 in 10.0 mi SW 3.5 mph - N/A   Clear
7:35 AM 71.6 °F - 60.8 °F 69% 29.99 in 10.0 mi WSW 4.6 mph - N/A   Scattered Clouds
7:55 AM 69.8 °F - 59.0 °F 68% 29.99 in 10.0 mi West 3.5 mph - N/A   Clear
8:15 AM 71.6 °F - 60.8 °F 69% 29.98 in 10.0 mi West 4.6 mph - N/A   Clear
8:35 AM 73.4 °F - 60.8 °F 65% 29.98 in 10.0 mi WSW 3.5 mph - N/A   Clear
8:55 AM 73.4 °F - 60.8 °F 65% 29.98 in 10.0 mi SW 4.6 mph - N/A   Clear
9:15 AM 77.0 °F - 60.8 °F 57% 29.98 in 10.0 mi Calm Calm - N/A   Clear
9:35 AM 77.0 °F - 60.8 °F 57% 29.97 in 10.0 mi Calm Calm - N/A   Clear
9:55 AM 78.8 °F - 60.8 °F 54% 29.96 in 10.0 mi SW 3.5 mph - N/A   Clear
10:15 AM 78.8 °F - 60.8 °F 54% 29.96 in 10.0 mi Calm Calm - N/A   Clear
10:35 AM 80.6 °F 81.8 °F 62.6 °F 54% 29.96 in 10.0 mi Calm Calm - N/A   Clear
10:55 AM 80.6 °F 81.8 °F 62.6 °F 54% 29.96 in 10.0 mi SSW 3.5 mph - N/A   Clear
11:15 AM 80.6 °F 81.8 °F 62.6 °F 54% 29.96 in 10.0 mi SW 5.8 mph - N/A   Clear
11:35 AM 84.2 °F 85.6 °F 64.4 °F 51% 29.95 in 10.0 mi WSW 4.6 mph - N/A   Clear
11:55 AM 86.0 °F 86.6 °F 62.6 °F 45% 29.95 in 10.0 mi West 5.8 mph - N/A   Clear
12:15 PM 86.0 °F 87.3 °F 64.4 °F 48% 29.95 in 10.0 mi Calm Calm - N/A   Clear
12:35 PM 87.8 °F 88.5 °F 62.6 °F 43% 29.94 in 10.0 mi WSW 5.8 mph - N/A   Clear
12:55 PM 87.8 °F 89.4 °F 64.4 °F 46% 29.93 in 10.0 mi West 5.8 mph - N/A   Clear
1:15 PM 87.8 °F 88.5 °F 62.6 °F 43% 29.92 in 10.0 mi SSW 3.5 mph - N/A   Clear
1:35 PM 87.8 °F 89.4 °F 64.4 °F 46% 29.90 in 10.0 mi SSW 6.9 mph - N/A   Scattered Clouds
1:55 PM 87.8 °F 88.5 °F 62.6 °F 43% 29.89 in 10.0 mi SW 3.5 mph - N/A   Scattered Clouds
2:15 PM 89.6 °F 90.1 °F 62.6 °F 40% 29.87 in 10.0 mi SW 9.2 mph - N/A   Scattered Clouds
2:35 PM 87.8 °F 88.5 °F 62.6 °F 43% 29.87 in 10.0 mi WSW 10.4 mph - N/A   Scattered Clouds
2:55 PM 84.2 °F 85.6 °F 64.4 °F 51% 29.88 in 10.0 mi SW 13.8 mph 20.7 mph N/A   Scattered Clouds
3:15 PM 78.8 °F - 68.0 °F 69% 29.89 in 5.0 mi West 5.8 mph - N/A   Mostly Cloudy
3:35 PM 77.0 °F - 68.0 °F 74% 29.89 in 10.0 mi West 9.2 mph - 0.01 in   Mostly Cloudy
3:55 PM 75.2 °F - 68.0 °F 78% 29.89 in 7.0 mi West 6.9 mph - 0.01 in   Mostly Cloudy
4:15 PM 73.4 °F - 68.0 °F 83% 29.88 in 7.0 mi Calm Calm - 0.01 in   Overcast
4:35 PM 75.2 °F - 68.0 °F 78% 29.87 in 10.0 mi SW 3.5 mph - 0.01 in   Scattered Clouds
4:55 PM 77.0 °F - 69.8 °F 78% 29.85 in 10.0 mi SW 3.5 mph - 0.01 in   Clear
5:15 PM 78.8 °F - 69.8 °F 74% 29.85 in 10.0 mi SW 4.6 mph - N/A   Clear
5:35 PM 80.6 °F 83.9 °F 69.8 °F 70% 29.85 in 10.0 mi WSW 4.6 mph - N/A   Clear
5:55 PM 82.4 °F 86.3 °F 69.8 °F 66% 29.84 in 10.0 mi SW 5.8 mph - N/A   Clear
6:15 PM 82.4 °F 85.4 °F 68.0 °F 62% 29.83 in 10.0 mi SW 6.9 mph - N/A   Clear
6:35 PM 80.6 °F 83.9 °F 69.8 °F 70% 29.84 in 10.0 mi SW 9.2 mph - N/A   Clear
6:55 PM 82.4 °F 85.4 °F 68.0 °F 62% 29.84 in 10.0 mi WSW 9.2 mph - N/A   Clear
7:15 PM 80.6 °F 83.2 °F 68.0 °F 65% 29.83 in 10.0 mi SSW 6.9 mph - N/A   Clear
7:35 PM 80.6 °F 83.2 °F 68.0 °F 65% 29.83 in 10.0 mi SSW 5.8 mph - N/A   Clear
7:55 PM 78.8 °F - 68.0 °F 69% 29.83 in 10.0 mi SW 5.8 mph - N/A   Clear
8:15 PM 78.8 °F - 68.0 °F 69% 29.83 in 10.0 mi SW 4.6 mph - N/A   Clear
8:35 PM 78.8 °F - 66.2 °F 65% 29.83 in 10.0 mi Calm Calm - N/A   Clear
8:55 PM 77.0 °F - 66.2 °F 69% 29.83 in 10.0 mi Calm Calm - N/A   Clear
9:15 PM 77.0 °F - 66.2 °F 69% 29.84 in 10.0 mi Calm Calm - N/A   Clear
9:35 PM 75.2 °F - 66.2 °F 73% 29.84 in 10.0 mi Calm Calm - N/A   Clear
9:55 PM 73.4 °F - 66.2 °F 78% 29.84 in 10.0 mi Calm Calm - N/A   Clear
10:15 PM 75.2 °F - 66.2 °F 73% 29.85 in 10.0 mi WSW 3.5 mph - N/A   Clear
10:35 PM 75.2 °F - 68.0 °F 78% 29.85 in 10.0 mi West 6.9 mph - N/A   Clear
10:55 PM 73.4 °F - 68.0 °F 83% 29.83 in 10.0 mi Calm Calm - N/A   Clear
11:15 PM 73.4 °F - 64.4 °F 73% 29.83 in 10.0 mi West 5.8 mph - N/A   Clear
11:35 PM 73.4 °F - 62.6 °F 69% 29.82 in 10.0 mi West 3.5 mph - N/A   Clear
11:55 PM 71.6 °F - 62.6 °F 73% 29.83 in 10.0 mi West 3.5 mph - N/A   Clear